This demonstration page uses our WeatherBlox Daily Observations layout. Learn more.

Left ArrowRight Arrow

Hourly Observations for November 24, 2015

Temp ( °F °C ) Dew Point ( °F °C ) Humidity (%) Winds ( mph kmh ) Pressure ( in mb ) Visibility ( mi km ) Precip ( " mm )
12:53 am 00:53 Clear 24 -4.4 21 -6.1 88 88 N N/A 29.73 1007 10 16 N/A
1:53 am 01:53 Mostly Cloudy 23 -5 20 -6.7 88 88 N N/A 29.74 1007 10 16 N/A
2:53 am 02:53 Cloudy 24 -4.4 22 -5.6 91 91 N N/A 29.76 1008 10 16 N/A
3:53 am 03:53 Mostly Cloudy 24 -4.4 21 -6.1 88 88 WSW 5 7 29.78 1008 10 16 N/A
4:53 am 04:53 Mostly Cloudy 23 -5 21 -6.1 92 92 WSW 7 11 29.81 1009 10 16 N/A
5:53 am 05:53 Clear 23 -5 21 -6.1 92 92 WSW 7 11 29.83 1010 10 16 N/A
6:53 am 06:53 Cloudy 27 -2.8 23 -5 85 85 W 6 9 29.85 1011 10 16 N/A
7:53 am 07:53 Mostly Cloudy 27 -2.8 24 -4.4 89 89 SSW 7 11 29.88 1012 10 16 N/A
8:05 am 08:05 Mostly Cloudy 28 -2.2 25 -3.9 88 88 VRB 5 7 29.91 1013 10 16 N/A
8:53 am 08:53 Cloudy 30 -1.1 26 -3.3 85 85 W 9 15 29.91 1013 10 16 N/A
9:53 am 09:53 Cloudy 31 -0.6 26 -3.3 82 82 W 9 15 29.94 1014 10 16 N/A
10:53 am 10:53 Cloudy 32 undefined 25 -3.9 75 75 WNW 16 26 29.95 1014 10 16 N/A
11:53 am 11:53 Cloudy 32 undefined 24 -4.4 73 73 WNW 17 28 29.96 1015 10 16 N/A
12:53 pm 12:53 Cloudy with Light Snow 30 -1.1 25 -3.9 82 82 NW 18 30 29.98 1015 3 5 N/A
12:58 pm 12:58 Cloudy with Light Snow 30 -1 25 -4 80 80 NW 14 22 30.00 1016 2 3 N/A
1:06 pm 13:06 Cloudy with Light Snow 30 -1 27 -3 86 86 WNW 13 20 30.00 1016 1 2 N/A
1:36 pm 13:36 Cloudy with Light Snow 30 -1 27 -3 86 86 WNW 13 20 30.00 1016 2 3 N/A
1:39 pm 13:39 Cloudy with Light Snow 30 -1.1 27 -2.8 88 88 WNW 16 26 30.00 1016 2 3 N/A
1:44 pm 13:44 Cloudy with Light Snow 30 -1 27 -3 86 86 WNW 15 24 30.00 1016 2 3 N/A
1:53 pm 13:53 Cloudy with Light Snow 30 -1.1 27 -2.8 88 88 WNW 14 22 29.98 1015 2 3 N/A
2:13 pm 14:13 Cloudy with Light Snow 29 -1.7 27 -2.8 92 92 NW 15 24 30.00 1016 1 2 0.01 0.25
2:25 pm 14:25 Cloudy with Light Snow 29 -1.7 26 -3.3 89 89 NW 16 26 30.00 1016 2 2 0.01 0.25
2:39 pm 14:39 Windy with Snow Likely 29 -1.7 26 -3.3 89 89 NW 20 31 30.03 1017 3 4 0.01 0.25
2:44 pm 14:44 Cloudy with Light Snow 28 -2 27 -3 93 93 NW 15 24 30.03 1017 3 5 N/A
2:48 pm 14:48 Cloudy with Light Snow 28 -2 27 -3 93 93 NW 14 22 30.03 1017 3 4 N/A
2:53 pm 14:53 Cloudy with Light Snow 29 -1.7 26 -3.3 89 89 NW 16 26 30.00 1016 3 4 0.01 0.25
3:17 pm 15:17 Cloudy with Light Snow 29 -1.7 26 -3.3 89 89 NW 13 20 30.03 1017 3 5 N/A
3:24 pm 15:24 Cloudy with Light Snow 28 -2 25 -4 86 86 NW 16 26 30.03 1017 5 8 N/A
3:34 pm 15:34 Cloudy with Light Snow 28 -2 25 -4 86 86 NNW 15 24 30.03 1017 2 3 N/A
3:40 pm 15:40 Cloudy with Light Snow 28 -2 25 -4 86 86 NW 14 22 30.06 1018 1 1 N/A
3:53 pm 15:53 Cloudy with Light Snow 28 -2.2 26 -3.3 92 92 NW 10 17 30.03 1017 1 1 0.01 0.25
4:06 pm 16:06 Cloudy with Light Snow 28 -2 27 -3 93 93 NW 10 17 30.06 1018 1 2 N/A
4:14 pm 16:14 Cloudy with Light Snow 28 -2 27 -3 93 93 NW 10 17 30.06 1018 2 2 N/A
4:29 pm 16:29 Cloudy with Light Snow 28 -2.2 25 -3.9 88 88 NNW 10 17 30.09 1019 1 2 0.01 0.25
4:40 pm 16:40 Mostly Cloudy with Light Snow 28 -2 27 -3 93 93 NNW 10 17 30.09 1019 1 1 N/A
4:53 pm 16:53 Mostly Cloudy with Light Snow 27 -2.8 26 -3.3 96 96 NNW 9 15 30.06 1018 1 1 0.04 1.02
5:42 pm 17:42 Cloudy with Light Snow 27 -3 27 -3 100 100 NW 7 11 30.15 1021 1 2 N/A
5:53 pm 17:53 Cloudy with Light Snow 27 -2.8 26 -3.3 96 96 NNW 10 17 30.10 1019 2 3 0.05 1.27
5:55 pm 17:55 Cloudy with Light Snow 27 -2.8 25 -3.9 92 92 NNW 9 15 30.15 1021 2 3 N/A
6:05 pm 18:05 Cloudy with Light Snow 27 -2.8 25 -3.9 92 92 NNW 12 19 30.15 1021 2 3 N/A
6:08 pm 18:08 Cloudy with Light Snow 27 -3 25 -4 93 93 N 17 28 30.15 1021 2 3 N/A
6:21 pm 18:21 Cloudy with Light Snow 26 -3.3 22 -5.6 84 84 N 16 26 30.15 1021 4 6 N/A
6:48 pm 18:48 Windy with Snow Likely 25 -4 21 -6 86 86 N 21 33 30.18 1022 3 5 N/A
6:53 pm 18:53 Windy with Snow Likely 25 -3.9 21 -6.1 85 85 N 21 33 30.13 1020 4 6 N/A
7:35 pm 19:35 Cloudy with Light Snow 23 -5 20 -6.7 88 88 NNW 16 26 30.21 1023 2 3 N/A
7:42 pm 19:42 Cloudy with Light Snow 23 -5 19 -7 86 86 N 17 28 30.21 1023 2 3 N/A
7:53 pm 19:53 Cloudy with Light Snow 23 -5 19 -7.2 85 85 N 15 24 30.17 1022 2 3 N/A
8:08 pm 20:08 Cloudy with Light Snow 21 -6 19 -7 93 93 N 16 26 30.24 1024 1 2 N/A
8:28 pm 20:28 Mostly Cloudy with Light Snow 21 -6 18 -8 86 86 N 21 33 30.24 1024 1 2 N/A
8:42 pm 20:42 Cloudy with Light Snow 21 -6 18 -8 86 86 N 16 26 30.24 1024 2 3 N/A
8:51 pm 20:51 Cloudy with Light Snow 21 -6 18 -8 86 86 N 15 24 30.24 1024 2 3 0.01 0.25
8:53 pm 20:53 Cloudy with Light Snow 21 -6.1 18 -7.8 88 88 N 15 24 30.19 1022 2 3 0.01 0.25
9:06 pm 21:06 Cloudy with Light Snow 21 -6 18 -8 86 86 N 16 26 30.24 1024 2 3 N/A
9:17 pm 21:17 Windy with Snow Likely 20 -6.7 16 -8.9 85 85 N 21 33 30.30 1026 3 4 N/A
9:49 pm 21:49 Cloudy with Light Snow 19 -7 16 -9 86 86 N 15 24 30.30 1026 2 3 N/A
9:53 pm 21:53 Cloudy with Light Snow 20 -6.7 16 -8.9 85 85 N 13 20 30.23 1024 2 3 N/A
10:07 pm 22:07 Cloudy with Light Snow 20 -6.7 16 -8.9 85 85 N 15 24 30.33 1027 3 5 N/A
10:20 pm 22:20 Cloudy with Light Snow 19 -7 16 -9 86 86 N 15 24 30.33 1027 3 4 N/A
10:36 pm 22:36 Cloudy with Light Snow 19 -7.2 16 -8.9 88 88 N 14 22 30.33 1027 2 3 0.01 0.25
10:45 pm 22:45 Cloudy with Light Snow 19 -7.2 15 -9.4 84 84 N 16 26 30.33 1027 3 5 0.01 0.25
10:53 pm 22:53 Cloudy with Light Snow 19 -7.2 14 -10 81 81 N 15 24 30.26 1025 4 6 0.01 0.25
11:53 pm 23:53 Cloudy with Light Snow 18 -7.8 14 -10 84 84 NNW 8 13 30.29 1026 4 6 N/A

Powered by AerisWeather